START_TIME,STEP,MOV.,M6,t_acc.,M7,t_acc.,M19,t_acc.,H36,t_acc.
1979-07-11 12:00:27.460 ,3,0,10.,12.0,0.,12.0,0.,12.0,1.,12.0
1979-07-11 12:00:39.460 ,3,0,12.,12.0,0.,12.0,0.,12.0,1.,12.0
1979-07-11 12:00:51.460 ,3,0,10.,12.0,0.,12.0,0.,12.0,2.,12.0
1979-07-11 12:01:03.460 ,3,0,6.,12.0,0.,12.0,0.,12.0,1.,12.0
1979-07-11 12:01:15.460 ,3,0,11.,12.0,0.,12.0,0.,12.0,1.,12.0
1979-07-11 12:01:27.460 ,3,0,5.,12.0,0.,12.0,0.,12.0,0.,12.0
1979-07-11 12:01:39.460 ,2,1,10.,12.0,0.,12.0,0.,12.0,0.,12.0
1979-07-11 12:01:51.460 ,2,1,7.,12.0,0.,12.0,0.,12.0,1.,12.0
1979-07-11 12:02:03.460 ,2,0,10.,12.0,0.,12.0,0.,12.0,0.,12.0
1979-07-11 12:02:15.460 ,2,0,7.,12.0,0.,12.0,0.,12.0,0.,12.0
1979-07-11 12:02:27.460 ,2,0,6.,12.0,0.,12.0,0.,12.0,1.,12.0
1979-07-11 12:02:39.460 ,2,0,7.,12.0,0.,12.0,0.,12.0,2.,12.0
1979-07-11 12:02:51.460 ,2,0,9.,12.0,0.,12.0,0.,12.0,0.,12.0
1979-07-11 12:03:03.460 ,2,0,9.,12.0,0.,12.0,0.,12.0,2.,12.0
1979-07-11 12:03:15.460 ,2,0,5.,12.0,0.,12.0,0.,12.0,2.,12.0
1979-07-11 12:03:27.460 ,2,0,7.,12.0,0.,12.0,0.,12.0,0.,12.0
1979-07-11 12:03:39.460 ,2,0,9.,12.0,0.,12.0,0.,12.0,0.,12.0
1979-07-11 12:03:51.460 ,2,0,10.,12.0,0.,12.0,0.,12.0,1.,12.0
1979-07-11 12:04:03.460 ,1,1,10.,12.0,0.,12.0,0.,12.0,1.,12.0
1979-07-11 12:04:15.460 ,1,1,4.,12.0,0.,12.0,0.,12.0,1.,12.0
1979-07-11 12:04:27.460 ,1,0,6.,12.0,0.,12.0,0.,12.0,1.,12.0
1979-07-11 12:04:39.460 ,1,0,7.,12.0,0.,12.0,0.,12.0,1.,12.0
1979-07-11 12:04:51.460 ,1,0,2.,12.0,0.,12.0,0.,12.0,0.,12.0
1979-07-11 12:05:03.460 ,1,0,6.,12.0,0.,12.0,0.,12.0,1.,12.0
1979-07-11 12:05:15.460 ,1,0,7.,12.0,0.,12.0,0.,12.0,1.,12.0
1979-07-11 12:05:27.460 ,1,0,7.,12.0,0.,12.0,0.,12.0,1.,12.0
1979-07-11 12:05:39.460 ,1,0,10.,12.0,0.,12.0,0.,12.0,2.,12.0
1979-07-11 12:05:51.460 ,1,0,10.,12.0,0.,12.0,0.,12.0,1.,12.0
1979-07-11 12:06:03.460 ,1,0,7.,12.0,0.,12.0,0.,12.0,1.,12.0
1979-07-11 12:06:15.460 ,1,0,4.,12.0,0.,12.0,0.,12.0,0.,12.0
1979-07-11 12:06:27.460 ,0,1,12.,12.0,0.,12.0,0.,12.0,0.,12.0
1979-07-11 12:06:39.460 ,0,1,7.,12.0,0.,12.0,0.,12.0,0.,12.0
1979-07-11 12:06:51.460 ,0,0,9.,12.0,0.,12.0,0.,12.0,0.,12.0
1979-07-11 12:07:03.460 ,0,0,7.,12.0,0.,12.0,0.,12.0,0.,12.0
1979-07-11 12:07:15.460 ,0,0,5.,12.0,0.,12.0,0.,12.0,0.,12.0
1979-07-11 12:07:27.460 ,0,0,11.,12.0,0.,12.0,0.,12.0,1.,12.0
1979-07-11 12:07:39.460 ,0,0,11.,12.0,0.,12.0,0.,12.0,1.,12.0
1979-07-11 12:07:51.460 ,0,0,9.,12.0,0.,12.0,0.,12.0,1.,12.0
1979-07-11 12:08:03.460 ,0,0,2.,12.0,0.,12.0,0.,12.0,1.,12.0
1979-07-11 12:08:15.460 ,0,0,12.,12.0,0.,12.0,0.,12.0,0.,12.0
1979-07-11 12:08:27.460 ,0,0,7.,12.0,0.,12.0,0.,12.0,1.,12.0
1979-07-11 12:08:39.460 ,0,0,6.,12.0,0.,12.0,0.,12.0,0.,12.0
1979-07-11 12:08:51.460 ,0,1,7.,12.0,0.,12.0,0.,12.0,0.,12.0
1979-07-11 12:09:03.460 ,0,1,7.,12.0,0.,12.0,0.,12.0,1.,12.0
1979-07-11 12:09:15.460 ,0,0,9.,12.0,0.,12.0,0.,12.0,1.,12.0
1979-07-11 12:09:27.460 ,0,0,6.,12.0,0.,12.0,0.,12.0,0.,12.0
1979-07-11 12:09:39.460 ,0,0,8.,12.0,0.,12.0,0.,12.0,2.,12.0
1979-07-11 12:09:51.460 ,0,0,6.,12.0,0.,12.0,0.,12.0,1.,12.0
1979-07-11 12:10:03.460 ,0,0,7.,12.0,0.,12.0,0.,12.0,0.,12.0
1979-07-11 12:10:15.460 ,0,0,6.,12.0,0.,12.0,0.,12.0,0.,12.0
1979-07-11 12:10:27.460 ,0,0,6.,12.0,0.,12.0,0.,12.0,0.,12.0
1979-07-11 12:10:39.460 ,0,0,11.,12.0,0.,12.0,0.,12.0,1.,12.0
1979-07-11 12:10:51.460 ,0,0,9.,12.0,0.,12.0,0.,12.0,1.,12.0
1979-07-11 12:11:03.460 ,0,0,7.,12.0,0.,12.0,0.,12.0,0.,12.0
1979-07-11 12:11:15.460 ,1,1,8.,12.0,0.,12.0,0.,12.0,0.,12.0
1979-07-11 12:11:27.460 ,1,1,6.,12.0,0.,12.0,0.,12.0,0.,12.0
1979-07-11 12:11:39.460 ,1,0,1.,12.0,0.,12.0,0.,12.0,1.,12.0
1979-07-11 12:11:51.460 ,1,0,10.,12.0,0.,12.0,0.,12.0,1.,12.0
1979-07-11 12:12:03.460 ,1,0,6.,12.0,0.,12.0,0.,12.0,0.,12.0
1979-07-11 12:12:15.460 ,1,0,12.,12.0,0.,12.0,0.,12.0,0.,12.0
1979-07-11 12:12:27.460 ,1,0,7.,12.0,0.,12.0,0.,12.0,2.,12.0
1979-07-11 12:12:39.460 ,1,0,5.,12.0,0.,12.0,0.,12.0,1.,12.0
1979-07-11 12:12:51.460 ,1,0,7.,12.0,0.,12.0,0.,12.0,1.,12.0
1979-07-11 12:13:03.460 ,1,0,6.,12.0,0.,12.0,0.,12.0,1.,12.0
1979-07-11 12:13:15.460 ,1,0,10.,12.0,0.,12.0,0.,12.0,1.,12.0
1979-07-11 12:13:27.460 ,1,0,5.,12.0,0.,12.0,0.,12.0,1.,12.0
1979-07-11 12:13:39.460 ,2,1,1.,12.0,0.,12.0,0.,12.0,0.,12.0
1979-07-11 12:13:51.460 ,2,1,9.,12.0,0.,12.0,0.,12.0,1.,12.0
1979-07-11 12:14:03.460 ,2,0,13.,12.0,0.,12.0,0.,12.0,0.,12.0
1979-07-11 12:14:15.460 ,2,0,4.,12.0,0.,12.0,0.,12.0,1.,12.0
1979-07-11 12:14:27.460 ,2,0,8.,12.0,0.,12.0,0.,12.0,1.,12.0
1979-07-11 12:14:39.460 ,2,0,4.,12.0,0.,12.0,0.,12.0,3.,12.0
1979-07-11 12:14:51.460 ,2,0,6.,12.0,0.,12.0,0.,12.0,0.,12.0
1979-07-11 12:15:03.460 ,2,0,6.,12.0,0.,12.0,0.,12.0,0.,12.0
1979-07-11 12:15:15.460 ,2,0,8.,12.0,0.,12.0,0.,12.0,0.,12.0
1979-07-11 12:15:27.460 ,2,0,6.,12.0,0.,12.0,0.,12.0,1.,12.0
1979-07-11 12:15:39.460 ,2,0,4.,12.0,0.,12.0,0.,12.0,1.,12.0
1979-07-11 12:15:51.460 ,2,0,7.,12.0,0.,12.0,0.,12.0,0.,12.0
1979-07-11 12:16:03.460 ,3,1,6.,12.0,0.,12.0,0.,12.0,0.,12.0
1979-07-11 12:16:15.460 ,3,1,5.,12.0,0.,12.0,0.,12.0,1.,12.0
1979-07-11 12:16:27.460 ,3,0,15.,12.0,0.,12.0,0.,12.0,2.,12.0
1979-07-11 12:16:39.460 ,3,0,6.,12.0,0.,12.0,0.,12.0,1.,12.0
1979-07-11 12:16:51.460 ,3,0,8.,12.0,0.,12.0,0.,12.0,1.,12.0
1979-07-11 12:17:03.460 ,3,0,6.,12.0,0.,12.0,0.,12.0,1.,12.0
1979-07-11 12:17:15.460 ,3,0,6.,12.0,0.,12.0,0.,12.0,0.,12.0
1979-07-11 12:17:27.460 ,3,0,9.,12.0,0.,12.0,0.,12.0,0.,12.0
1979-07-11 12:17:39.460 ,3,0,7.,12.0,0.,12.0,0.,12.0,0.,12.0
1979-07-11 12:17:51.460 ,3,0,14.,12.0,0.,12.0,0.,12.0,1.,12.0
1979-07-11 12:18:03.460 ,3,0,2.,12.0,0.,12.0,0.,12.0,0.,12.0
1979-07-11 12:18:15.460 ,3,0,7.,12.0,0.,12.0,0.,12.0,1.,12.0
1979-07-11 12:18:27.460 ,4,1,4.,12.0,0.,12.0,0.,12.0,1.,12.0
1979-07-11 12:18:39.460 ,4,1,11.,12.0,0.,12.0,0.,12.0,3.,12.0
1979-07-11 12:18:51.460 ,4,0,3.,12.0,0.,12.0,0.,12.0,2.,12.0
1979-07-11 12:19:03.460 ,4,0,8.,12.0,0.,12.0,0.,12.0,1.,12.0
1979-07-11 12:19:15.460 ,4,0,14.,12.0,0.,12.0,0.,12.0,1.,12.0
1979-07-11 12:19:27.460 ,4,0,5.,12.0,0.,12.0,0.,12.0,1.,12.0
1979-07-11 12:19:39.460 ,4,0,7.,12.0,0.,12.0,0.,12.0,1.,12.0
1979-07-11 12:19:51.460 ,4,0,14.,12.0,0.,12.0,0.,12.0,2.,12.0
1979-07-11 12:20:03.460 ,4,0,17.,12.0,0.,12.0,0.,12.0,3.,12.0
1979-07-11 12:20:15.460 ,4,0,16.,12.0,0.,12.0,0.,12.0,4.,12.0
1979-07-11 12:20:27.460 ,4,0,16.,12.0,0.,12.0,0.,12.0,0.,12.0
1979-07-11 12:20:39.460 ,4,0,17.,12.0,0.,12.0,0.,12.0,0.,12.0
1979-07-11 12:20:51.460 ,5,1,9.,12.0,0.,12.0,0.,12.0,1.,12.0
1979-07-11 12:21:03.460 ,5,1,12.,12.0,0.,12.0,0.,12.0,3.,12.0
1979-07-11 12:21:15.460 ,5,0,11.,12.0,0.,12.0,0.,12.0,0.,12.0
1979-07-11 12:21:27.460 ,5,0,14.,12.0,0.,12.0,0.,12.0,3.,12.0
1979-07-11 12:21:39.460 ,5,0,14.,12.0,0.,12.0,0.,12.0,1.,12.0
1979-07-11 12:21:51.460 ,5,0,14.,12.0,0.,12.0,0.,12.0,3.,12.0
1979-07-11 12:22:03.460 ,5,0,12.,12.0,0.,12.0,0.,12.0,1.,12.0
1979-07-11 12:22:15.460 ,5,0,16.,12.0,0.,12.0,0.,12.0,3.,12.0
1979-07-11 12:22:27.460 ,5,0,10.,12.0,0.,12.0,0.,12.0,1.,12.0
1979-07-11 12:22:39.460 ,5,0,16.,12.0,0.,12.0,0.,12.0,0.,12.0
1979-07-11 12:22:51.460 ,5,0,15.,12.0,0.,12.0,0.,12.0,2.,12.0
1979-07-11 12:23:03.460 ,5,0,13.,12.0,0.,12.0,0.,12.0,1.,12.0
1979-07-11 12:23:15.460 ,6,1,12.,12.0,0.,12.0,0.,12.0,1.,12.0
1979-07-11 12:23:27.460 ,6,1,7.,12.0,0.,12.0,0.,12.0,4.,12.0
1979-07-11 12:23:39.460 ,6,0,15.,12.0,0.,12.0,0.,12.0,2.,12.0
1979-07-11 12:23:51.460 ,6,0,12.,12.0,0.,12.0,0.,12.0,2.,12.0
1979-07-11 12:24:03.460 ,6,0,6.,12.0,0.,12.0,0.,12.0,3.,12.0
1979-07-11 12:24:15.460 ,6,0,10.,12.0,0.,12.0,0.,12.0,0.,12.0
1979-07-11 12:24:27.460 ,6,0,7.,12.0,0.,12.0,0.,12.0,3.,12.0
1979-07-11 12:24:39.460 ,6,0,8.,12.0,0.,12.0,0.,12.0,3.,12.0
1979-07-11 12:24:51.460 ,6,0,9.,12.0,0.,12.0,0.,12.0,0.,12.0
1979-07-11 12:25:03.460 ,6,0,13.,12.0,0.,12.0,0.,12.0,1.,12.0
1979-07-11 12:25:15.460 ,6,0,11.,12.0,0.,12.0,0.,12.0,2.,12.0
1979-07-11 12:25:27.460 ,6,0,5.,12.0,0.,12.0,0.,12.0,0.,12.0
1979-07-11 12:25:39.460 ,7,1,10.,12.0,0.,12.0,0.,12.0,0.,12.0
1979-07-11 12:25:51.460 ,7,1,1.,12.0,0.,12.0,0.,12.0,1.,12.0
1979-07-11 12:26:03.460 ,0,0,0.,12.0,0.,12.0,0.,12.0,0.,12.0
1979-07-11 12:26:15.460 ,0,0,,0,,0,,0,,0
1979-07-11 12:26:27.460 ,0,0,0.,12.0,0.,12.0,0.,12.0,0.,12.0
1979-07-11 12:26:39.460 ,0,0,0.,12.0,0.,12.0,0.,12.0,0.,12.0
1979-07-11 12:26:51.460 ,0,0,0.,12.0,0.,12.0,0.,12.0,0.,12.0
1979-07-11 12:27:03.460 ,0,0,0.,12.0,0.,12.0,0.,12.0,0.,12.0
1979-07-11 12:27:15.460 ,0,0,0.,12.0,0.,12.0,0.,12.0,0.,12.0
1979-07-11 12:27:27.460 ,0,0,0.,12.0,0.,12.0,0.,12.0,0.,12.0
1979-07-11 12:27:39.460 ,0,0,0.,12.0,0.,12.0,0.,12.0,0.,12.0
1979-07-11 12:27:51.460 ,0,0,0.,12.0,0.,12.0,0.,12.0,0.,12.0
1979-07-11 12:28:03.460 ,7,1,0.,12.0,0.,12.0,0.,12.0,0.,12.0
1979-07-11 12:28:15.460 ,7,1,0.,12.0,0.,12.0,0.,12.0,0.,12.0
1979-07-11 12:28:27.460 ,7,0,0.,12.0,0.,12.0,0.,12.0,0.,12.0
1979-07-11 12:28:39.460 ,7,0,0.,12.0,0.,12.0,0.,12.0,0.,12.0
1979-07-11 12:28:51.460 ,7,0,0.,12.0,0.,12.0,0.,12.0,0.,12.0
1979-07-11 12:29:03.460 ,7,0,0.,12.0,0.,12.0,0.,12.0,0.,12.0
1979-07-11 12:29:15.460 ,7,0,0.,12.0,0.,12.0,0.,12.0,0.,12.0
1979-07-11 12:29:27.460 ,7,0,0.,12.0,0.,12.0,0.,12.0,0.,12.0
1979-07-11 12:29:39.460 ,7,0,0.,12.0,0.,12.0,0.,12.0,0.,12.0
1979-07-11 12:29:51.460 ,7,0,0.,12.0,0.,12.0,0.,12.0,0.,12.0
1979-07-11 12:30:03.460 ,7,0,0.,12.0,0.,12.0,0.,12.0,0.,12.0
1979-07-11 12:30:15.460 ,7,0,0.,12.0,0.,12.0,0.,12.0,0.,12.0
1979-07-11 12:30:27.460 ,6,1,0.,12.0,0.,12.0,0.,12.0,0.,12.0
1979-07-11 12:30:39.460 ,6,1,11.,12.0,0.,12.0,0.,12.0,1.,12.0
1979-07-11 12:30:51.460 ,6,0,11.,12.0,0.,12.0,0.,12.0,2.,12.0
1979-07-11 12:31:03.460 ,6,0,10.,12.0,0.,12.0,0.,12.0,3.,12.0
1979-07-11 12:31:15.460 ,6,0,11.,12.0,0.,12.0,0.,12.0,1.,12.0
1979-07-11 12:31:27.460 ,6,0,15.,12.0,0.,12.0,0.,12.0,2.,12.0
1979-07-11 12:31:39.460 ,6,0,3.,12.0,0.,12.0,0.,12.0,2.,12.0
1979-07-11 12:31:51.460 ,6,0,6.,12.0,0.,12.0,0.,12.0,0.,12.0
1979-07-11 12:32:03.460 ,6,0,10.,12.0,0.,12.0,0.,12.0,3.,12.0
1979-07-11 12:32:15.460 ,6,0,7.,12.0,0.,12.0,0.,12.0,2.,12.0
1979-07-11 12:32:27.460 ,6,0,6.,12.0,0.,12.0,0.,12.0,0.,12.0
1979-07-11 12:32:39.460 ,6,0,6.,12.0,0.,12.0,0.,12.0,2.,12.0
1979-07-11 12:32:51.460 ,5,1,8.,12.0,0.,12.0,0.,12.0,1.,12.0
1979-07-11 12:33:03.460 ,5,1,11.,12.0,0.,12.0,0.,12.0,0.,12.0
1979-07-11 12:33:15.460 ,5,0,9.,12.0,0.,12.0,0.,12.0,0.,12.0
1979-07-11 12:33:27.460 ,5,0,9.,12.0,0.,12.0,0.,12.0,1.,12.0
1979-07-11 12:33:39.460 ,5,0,9.,12.0,0.,12.0,0.,12.0,2.,12.0
1979-07-11 12:33:51.460 ,5,0,9.,12.0,0.,12.0,0.,12.0,3.,12.0
1979-07-11 12:34:03.460 ,5,0,11.,12.0,0.,12.0,0.,12.0,0.,12.0
1979-07-11 12:34:15.460 ,5,0,7.,12.0,0.,12.0,0.,12.0,1.,12.0
1979-07-11 12:34:27.460 ,5,0,4.,12.0,0.,12.0,0.,12.0,5.,12.0
1979-07-11 12:34:39.460 ,5,0,12.,12.0,0.,12.0,0.,12.0,2.,12.0
1979-07-11 12:34:51.460 ,5,0,10.,12.0,0.,12.0,0.,12.0,0.,12.0
1979-07-11 12:35:03.460 ,5,0,11.,12.0,0.,12.0,0.,12.0,1.,12.0
1979-07-11 12:35:15.460 ,4,1,4.,12.0,0.,12.0,0.,12.0,1.,12.0
1979-07-11 12:35:27.460 ,4,1,7.,12.0,0.,12.0,0.,12.0,0.,12.0
1979-07-11 12:35:39.460 ,4,0,7.,12.0,0.,12.0,0.,12.0,4.,12.0
1979-07-11 12:35:51.460 ,4,0,4.,12.0,0.,12.0,0.,12.0,0.,12.0
1979-07-11 12:36:03.460 ,4,0,7.,12.0,0.,12.0,0.,12.0,1.,12.0
1979-07-11 12:36:15.460 ,4,0,7.,12.0,0.,12.0,0.,12.0,3.,12.0
1979-07-11 12:36:27.460 ,4,0,5.,12.0,0.,12.0,0.,12.0,0.,12.0
1979-07-11 12:36:39.460 ,4,0,9.,12.0,0.,12.0,0.,12.0,1.,12.0
1979-07-11 12:36:51.460 ,4,0,6.,12.0,0.,12.0,0.,12.0,0.,12.0
1979-07-11 12:37:03.460 ,4,0,7.,12.0,0.,12.0,0.,12.0,0.,12.0
1979-07-11 12:37:15.460 ,4,0,7.,12.0,0.,12.0,0.,12.0,0.,12.0
1979-07-11 12:37:27.460 ,4,0,6.,12.0,0.,12.0,0.,12.0,0.,12.0
1979-07-11 12:37:39.460 ,3,1,4.,12.0,0.,12.0,0.,12.0,0.,12.0
1979-07-11 12:37:51.460 ,3,1,6.,12.0,0.,12.0,0.,12.0,0.,12.0
1979-07-11 12:38:03.460 ,3,0,1.,12.0,0.,12.0,0.,12.0,1.,12.0
1979-07-11 12:38:15.460 ,3,0,6.,12.0,0.,12.0,0.,12.0,1.,12.0
1979-07-11 12:38:27.460 ,3,0,4.,12.0,0.,12.0,0.,12.0,0.,12.0
1979-07-11 12:38:39.460 ,3,0,5.,12.0,0.,12.0,0.,12.0,1.,12.0
1979-07-11 12:38:51.460 ,3,0,5.,12.0,0.,12.0,0.,12.0,4.,12.0
1979-07-11 12:39:03.460 ,3,0,10.,12.0,0.,12.0,0.,12.0,2.,12.0
1979-07-11 12:39:15.460 ,3,0,9.,12.0,0.,12.0,0.,12.0,1.,12.0
1979-07-11 12:39:27.460 ,3,0,7.,12.0,0.,12.0,0.,12.0,1.,12.0
1979-07-11 12:39:39.460 ,3,0,4.,12.0,0.,12.0,0.,12.0,0.,12.0
1979-07-11 12:39:51.460 ,3,0,12.,12.0,0.,12.0,0.,12.0,0.,12.0
1979-07-11 12:40:03.460 ,2,1,8.,12.0,0.,12.0,0.,12.0,2.,12.0
1979-07-11 12:40:15.460 ,2,1,8.,12.0,0.,12.0,0.,12.0,0.,12.0
1979-07-11 12:40:27.460 ,2,0,6.,12.0,0.,12.0,0.,12.0,0.,12.0
1979-07-11 12:40:39.460 ,2,0,6.,12.0,0.,12.0,0.,12.0,1.,12.0
1979-07-11 12:40:51.460 ,2,0,5.,12.0,0.,12.0,0.,12.0,0.,12.0
1979-07-11 12:41:03.460 ,2,0,3.,12.0,0.,12.0,0.,12.0,1.,12.0
1979-07-11 12:41:15.460 ,2,0,3.,12.0,0.,12.0,0.,12.0,0.,12.0
1979-07-11 12:41:27.460 ,2,0,12.,12.0,0.,12.0,0.,12.0,0.,12.0
1979-07-11 12:41:39.460 ,2,0,8.,12.0,0.,12.0,0.,12.0,1.,12.0
1979-07-11 12:41:51.460 ,2,0,8.,12.0,0.,12.0,0.,12.0,0.,12.0
1979-07-11 12:42:03.460 ,2,0,5.,12.0,0.,12.0,0.,12.0,2.,12.0
1979-07-11 12:42:15.460 ,2,0,6.,12.0,0.,12.0,0.,12.0,0.,12.0
1979-07-11 12:42:27.460 ,1,1,4.,12.0,0.,12.0,0.,12.0,0.,12.0
1979-07-11 12:42:39.460 ,1,1,5.,12.0,0.,12.0,0.,12.0,1.,12.0
1979-07-11 12:42:51.460 ,1,0,5.,12.0,0.,12.0,0.,12.0,0.,12.0
1979-07-11 12:43:03.460 ,1,0,2.,12.0,0.,12.0,0.,12.0,1.,12.0
1979-07-11 12:43:15.460 ,1,0,6.,12.0,0.,12.0,0.,12.0,3.,12.0
1979-07-11 12:43:27.460 ,1,0,3.,12.0,0.,12.0,0.,12.0,1.,12.0
1979-07-11 12:43:39.460 ,1,0,5.,12.0,0.,12.0,0.,12.0,0.,12.0
1979-07-11 12:43:51.460 ,1,0,6.,12.0,0.,12.0,0.,12.0,0.,12.0
1979-07-11 12:44:03.460 ,1,0,6.,12.0,0.,12.0,0.,12.0,1.,12.0
1979-07-11 12:44:15.460 ,1,0,8.,12.0,0.,12.0,0.,12.0,3.,12.0
1979-07-11 12:44:27.460 ,0,0,,0,,0,,0,,0
1979-07-11 12:44:39.460 ,0,0,,0,,0,,0,,0
1979-07-11 12:59:50.860 ,0,0,,0,,0,,0,,0
1979-07-11 13:00:02.860 ,0,0,14.,12.0,0.,12.0,0.,12.0,1.,12.0
1979-07-11 13:01:00.460 ,0,0,,0,,0,,0,,0
1979-07-11 13:01:12.460 ,0,0,19.,12.0,0.,12.0,0.,12.0,1.,12.0
1979-07-11 13:01:15.460 ,0,0,10.,12.0,0.,12.0,0.,12.0,0.,12.0
1979-07-11 13:01:27.460 ,0,0,12.,12.0,0.,12.0,0.,12.0,0.,12.0
1979-07-11 13:01:39.460 ,6,1,12.,12.0,0.,12.0,0.,12.0,0.,12.0
1979-07-11 13:01:51.460 ,6,1,10.,12.0,0.,12.0,0.,12.0,3.,12.0
1979-07-11 13:02:03.460 ,6,0,14.,12.0,0.,12.0,0.,12.0,0.,12.0
1979-07-11 13:02:15.460 ,6,0,10.,12.0,0.,12.0,0.,12.0,1.,12.0
1979-07-11 13:02:27.460 ,6,0,13.,12.0,0.,12.0,0.,12.0,0.,12.0
1979-07-11 13:02:39.460 ,6,0,10.,12.0,0.,12.0,0.,12.0,0.,12.0
1979-07-11 13:02:51.460 ,6,0,9.,12.0,0.,12.0,0.,12.0,2.,12.0
1979-07-11 13:03:03.460 ,6,0,12.,12.0,0.,12.0,0.,12.0,0.,12.0
1979-07-11 13:03:15.460 ,6,0,13.,12.0,0.,12.0,0.,12.0,0.,12.0
1979-07-11 13:03:27.460 ,6,0,19.,12.0,0.,12.0,0.,12.0,1.,12.0
1979-07-11 13:03:39.460 ,6,0,10.,12.0,0.,12.0,0.,12.0,1.,12.0
1979-07-11 13:03:51.460 ,6,0,17.,12.0,0.,12.0,0.,12.0,0.,12.0
1979-07-11 13:04:03.460 ,7,1,13.,12.0,0.,12.0,0.,12.0,1.,12.0
1979-07-11 13:04:15.460 ,7,1,0.,12.0,0.,12.0,0.,12.0,0.,12.0
1979-07-11 13:04:27.460 ,7,0,0.,12.0,0.,12.0,0.,12.0,0.,12.0
1979-07-11 13:04:39.460 ,7,0,0.,12.0,0.,12.0,0.,12.0,0.,12.0
1979-07-11 13:04:51.460 ,7,0,0.,12.0,0.,12.0,0.,12.0,0.,12.0
1979-07-11 13:05:03.460 ,7,0,0.,12.0,0.,12.0,0.,12.0,0.,12.0
1979-07-11 13:05:15.460 ,7,0,0.,12.0,0.,12.0,0.,12.0,0.,12.0
1979-07-11 13:05:27.460 ,7,0,0.,12.0,0.,12.0,0.,12.0,0.,12.0
1979-07-11 13:05:39.460 ,7,0,0.,12.0,0.,12.0,0.,12.0,0.,12.0
1979-07-11 13:05:51.460 ,7,0,0.,12.0,0.,12.0,0.,12.0,0.,12.0
1979-07-11 13:06:03.460 ,7,0,0.,12.0,0.,12.0,0.,12.0,0.,12.0
1979-07-11 13:06:15.460 ,7,0,0.,12.0,0.,12.0,0.,12.0,0.,12.0
1979-07-11 13:06:27.460 ,7,1,0.,12.0,0.,12.0,0.,12.0,0.,12.0
1979-07-11 13:06:39.460 ,7,1,0.,12.0,0.,12.0,0.,12.0,0.,12.0
1979-07-11 13:06:51.460 ,7,0,0.,12.0,0.,12.0,0.,12.0,0.,12.0
1979-07-11 13:07:03.460 ,7,0,0.,12.0,0.,12.0,0.,12.0,0.,12.0
1979-07-11 13:07:15.460 ,0,0,0.,12.0,0.,12.0,0.,12.0,0.,12.0
1979-07-11 13:07:27.460 ,0,0,0.,12.0,0.,12.0,0.,12.0,0.,12.0
1979-07-11 13:07:39.460 ,0,0,0.,12.0,0.,12.0,0.,12.0,0.,12.0
1979-07-11 13:07:51.460 ,0,0,0.,12.0,0.,12.0,0.,12.0,0.,12.0
1979-07-11 13:08:03.460 ,0,0,0.,12.0,0.,12.0,0.,12.0,0.,12.0
1979-07-11 13:08:15.460 ,0,0,0.,12.0,0.,12.0,0.,12.0,0.,12.0
1979-07-11 13:08:27.460 ,0,0,0.,12.0,0.,12.0,0.,12.0,0.,12.0
1979-07-11 13:08:39.460 ,0,0,0.,12.0,0.,12.0,0.,12.0,0.,12.0
1979-07-11 13:08:51.460 ,6,1,0.,12.0,0.,12.0,0.,12.0,0.,12.0
1979-07-11 13:09:03.460 ,6,1,4.,12.0,0.,12.0,0.,12.0,1.,12.0
1979-07-11 13:09:15.460 ,6,0,7.,12.0,0.,12.0,0.,12.0,1.,12.0
1979-07-11 13:09:27.460 ,6,0,9.,12.0,0.,12.0,0.,12.0,5.,12.0
1979-07-11 13:09:39.460 ,6,0,11.,12.0,0.,12.0,0.,12.0,1.,12.0
1979-07-11 13:09:51.460 ,6,0,7.,12.0,0.,12.0,0.,12.0,0.,12.0
1979-07-11 13:10:03.460 ,6,0,15.,12.0,0.,12.0,0.,12.0,1.,12.0
1979-07-11 13:10:15.460 ,6,0,5.,12.0,0.,12.0,0.,12.0,1.,12.0
1979-07-11 13:10:27.460 ,6,0,9.,12.0,0.,12.0,0.,12.0,0.,12.0
1979-07-11 13:10:39.460 ,6,0,2.,12.0,0.,12.0,0.,12.0,0.,12.0
1979-07-11 13:10:51.460 ,6,0,8.,12.0,0.,12.0,0.,12.0,0.,12.0
1979-07-11 13:11:03.460 ,6,0,8.,12.0,0.,12.0,0.,12.0,0.,12.0
1979-07-11 13:11:15.460 ,5,1,4.,12.0,0.,12.0,0.,12.0,0.,12.0
1979-07-11 13:11:27.460 ,5,1,6.,12.0,0.,12.0,0.,12.0,1.,12.0
1979-07-11 13:11:39.460 ,5,0,13.,12.0,0.,12.0,0.,12.0,1.,12.0
1979-07-11 13:11:51.460 ,5,0,7.,12.0,0.,12.0,0.,12.0,0.,12.0
1979-07-11 13:12:03.460 ,5,0,11.,12.0,0.,12.0,0.,12.0,0.,12.0
1979-07-11 13:12:15.460 ,5,0,12.,12.0,0.,12.0,0.,12.0,1.,12.0
1979-07-11 13:12:27.460 ,5,0,7.,12.0,0.,12.0,0.,12.0,1.,12.0
1979-07-11 13:12:39.460 ,5,0,9.,12.0,0.,12.0,0.,12.0,0.,12.0
1979-07-11 13:12:51.460 ,5,0,8.,12.0,0.,12.0,0.,12.0,1.,12.0
1979-07-11 13:13:03.460 ,5,0,7.,12.0,0.,12.0,0.,12.0,1.,12.0
1979-07-11 13:13:15.460 ,5,0,9.,12.0,0.,12.0,0.,12.0,0.,12.0
1979-07-11 13:13:27.460 ,5,0,20.,12.0,0.,12.0,0.,12.0,0.,12.0
1979-07-11 13:13:39.460 ,4,1,17.,12.0,0.,12.0,0.,12.0,0.,12.0
1979-07-11 13:13:51.460 ,4,1,14.,12.0,0.,12.0,0.,12.0,0.,12.0
1979-07-11 13:14:03.460 ,4,0,16.,12.0,0.,12.0,0.,12.0,4.,12.0
1979-07-11 13:14:15.460 ,4,0,13.,12.0,0.,12.0,0.,12.0,3.,12.0
1979-07-11 13:14:27.460 ,4,0,15.,12.0,0.,12.0,0.,12.0,1.,12.0
1979-07-11 13:14:39.460 ,4,0,17.,12.0,0.,12.0,0.,12.0,1.,12.0
1979-07-11 13:14:51.460 ,4,0,14.,12.0,0.,12.0,0.,12.0,1.,12.0
1979-07-11 13:15:03.460 ,4,0,14.,12.0,0.,12.0,0.,12.0,3.,12.0
1979-07-11 13:15:15.460 ,4,0,19.,12.0,0.,12.0,0.,12.0,2.,12.0
1979-07-11 13:15:27.460 ,4,0,20.,12.0,0.,12.0,0.,12.0,1.,12.0
1979-07-11 13:15:39.460 ,4,0,11.,12.0,0.,12.0,0.,12.0,1.,12.0
1979-07-11 13:15:51.460 ,4,0,15.,12.0,0.,12.0,0.,12.0,0.,12.0
1979-07-11 13:16:03.460 ,3,1,11.,12.0,0.,12.0,0.,12.0,2.,12.0
1979-07-11 13:16:15.460 ,3,1,11.,12.0,0.,12.0,0.,12.0,3.,12.0
1979-07-11 13:16:27.460 ,0,0,6.,12.0,0.,12.0,0.,12.0,0.,12.0
1979-07-11 13:16:39.460 ,0,0,16.,12.0,0.,12.0,0.,12.0,1.,12.0
1979-07-11 13:17:58.060 ,0,0,,0,,0,,0,,0
1979-07-11 13:18:10.060 ,0,0,,0,,0,,0,,0
1979-07-11 13:18:03.460 ,0,0,11.,12.0,0.,12.0,0.,12.0,0.,12.0
1979-07-11 13:18:15.460 ,0,0,13.,12.0,0.,12.0,0.,12.0,0.,12.0
1979-07-11 13:18:27.460 ,0,0,18.,12.0,0.,12.0,0.,12.0,1.,12.0
1979-07-11 13:18:39.460 ,0,0,10.,12.0,0.,12.0,0.,12.0,1.,12.0
1979-07-11 13:18:51.460 ,0,0,4.,12.0,0.,12.0,0.,12.0,3.,12.0
1979-07-11 13:19:03.460 ,0,0,6.,12.0,0.,12.0,0.,12.0,0.,12.0
1979-07-11 13:19:15.460 ,0,0,6.,12.0,0.,12.0,0.,12.0,1.,12.0
1979-07-11 13:19:27.460 ,0,0,13.,12.0,0.,12.0,0.,12.0,0.,12.0
1979-07-11 13:19:39.460 ,0,0,12.,12.0,0.,12.0,0.,12.0,0.,12.0
1979-07-11 13:19:51.460 ,0,0,9.,12.0,0.,12.0,0.,12.0,0.,12.0
1979-07-11 13:20:03.460 ,0,0,5.,12.0,0.,12.0,0.,12.0,2.,12.0
1979-07-11 13:20:15.460 ,0,0,7.,12.0,0.,12.0,0.,12.0,0.,12.0
1979-07-11 13:20:27.460 ,0,0,8.,12.0,0.,12.0,0.,12.0,0.,12.0
1979-07-11 13:20:39.460 ,0,0,6.,12.0,0.,12.0,0.,12.0,0.,12.0
1979-07-11 13:20:51.460 ,0,0,7.,12.0,0.,12.0,0.,12.0,0.,12.0
1979-07-11 13:21:03.460 ,0,0,5.,12.0,0.,12.0,0.,12.0,1.,12.0
1979-07-11 13:21:15.460 ,0,0,5.,12.0,0.,12.0,0.,12.0,0.,12.0
1979-07-11 13:21:27.460 ,0,0,6.,12.0,0.,12.0,0.,12.0,1.,12.0
1979-07-11 13:21:39.460 ,0,0,7.,12.0,0.,12.0,0.,12.0,0.,12.0
1979-07-11 13:21:51.460 ,0,0,4.,12.0,0.,12.0,0.,12.0,0.,12.0
1979-07-11 13:22:03.460 ,0,0,8.,12.0,0.,12.0,0.,12.0,0.,12.0
1979-07-11 13:22:15.460 ,0,0,7.,12.0,0.,12.0,0.,12.0,1.,12.0
1979-07-11 13:22:27.460 ,0,0,6.,12.0,0.,12.0,0.,12.0,1.,12.0
1979-07-11 13:22:39.460 ,0,0,5.,12.0,0.,12.0,0.,12.0,0.,12.0
1979-07-11 13:22:51.460 ,0,0,6.,12.0,0.,12.0,0.,12.0,1.,12.0
1979-07-11 13:23:03.460 ,0,0,1.,12.0,0.,12.0,0.,12.0,0.,12.0
1979-07-11 13:24:03.460 ,0,0,9.,12.0,0.,12.0,0.,12.0,0.,12.0
1979-07-11 13:24:15.460 ,0,0,4.,12.0,0.,12.0,0.,12.0,0.,12.0
1979-07-11 13:24:27.460 ,0,0,3.,12.0,0.,12.0,0.,12.0,0.,12.0
1979-07-11 13:24:39.460 ,0,0,6.,12.0,0.,12.0,0.,12.0,2.,12.0
1979-07-11 13:24:51.460 ,0,0,7.,12.0,0.,12.0,0.,12.0,0.,12.0
1979-07-11 13:25:03.460 ,0,0,8.,12.0,0.,12.0,0.,12.0,0.,12.0
1979-07-11 13:25:15.460 ,0,0,4.,12.0,0.,12.0,0.,12.0,0.,12.0
1979-07-11 13:25:27.460 ,0,0,3.,12.0,0.,12.0,0.,12.0,0.,12.0
1979-07-11 13:25:39.460 ,0,1,10.,12.0,0.,12.0,0.,12.0,1.,12.0
1979-07-11 13:25:51.460 ,0,1,4.,12.0,0.,12.0,0.,12.0,0.,12.0
1979-07-11 13:26:03.460 ,0,0,5.,12.0,0.,12.0,0.,12.0,1.,12.0
1979-07-11 13:26:15.460 ,0,0,7.,12.0,0.,12.0,0.,12.0,1.,12.0
1979-07-11 13:26:27.460 ,0,0,6.,12.0,0.,12.0,0.,12.0,0.,12.0
1979-07-11 13:26:39.460 ,0,0,4.,12.0,0.,12.0,0.,12.0,0.,12.0
1979-07-11 13:26:51.460 ,0,0,7.,12.0,0.,12.0,0.,12.0,1.,12.0
1979-07-11 13:27:03.460 ,0,0,9.,12.0,0.,12.0,0.,12.0,1.,12.0
1979-07-11 13:28:03.460 ,1,1,10.,12.0,0.,12.0,0.,12.0,0.,12.0
1979-07-11 13:28:15.460 ,1,1,5.,12.0,0.,12.0,0.,12.0,1.,12.0
1979-07-11 13:28:27.460 ,1,0,2.,12.0,0.,12.0,0.,12.0,2.,12.0
1979-07-11 13:28:39.460 ,1,0,3.,12.0,0.,12.0,0.,12.0,1.,12.0
1979-07-11 13:28:51.460 ,1,0,2.,12.0,0.,12.0,0.,12.0,0.,12.0
1979-07-11 13:29:03.460 ,1,0,2.,12.0,0.,12.0,0.,12.0,1.,12.0
1979-07-11 13:29:15.460 ,1,0,4.,12.0,0.,12.0,0.,12.0,0.,12.0
1979-07-11 13:29:27.460 ,1,0,4.,12.0,0.,12.0,0.,12.0,0.,12.0
1979-07-11 13:29:39.460 ,1,0,9.,12.0,0.,12.0,0.,12.0,1.,12.0
1979-07-11 13:29:51.460 ,1,0,6.,12.0,0.,12.0,0.,12.0,0.,12.0
1979-07-11 13:30:03.460 ,1,0,5.,12.0,0.,12.0,0.,12.0,1.,12.0
1979-07-11 13:30:15.460 ,1,0,1.,12.0,0.,12.0,0.,12.0,0.,12.0
1979-07-11 13:30:27.460 ,2,1,2.,12.0,0.,12.0,0.,12.0,0.,12.0
1979-07-11 13:30:39.460 ,2,1,3.,12.0,0.,12.0,0.,12.0,0.,12.0
1979-07-11 13:30:51.460 ,2,0,6.,12.0,0.,12.0,0.,12.0,0.,12.0
1979-07-11 13:31:03.460 ,2,0,3.,12.0,0.,12.0,0.,12.0,0.,12.0
1979-07-11 13:31:15.460 ,2,0,9.,12.0,0.,12.0,0.,12.0,0.,12.0
1979-07-11 13:31:27.460 ,2,0,2.,12.0,0.,12.0,0.,12.0,0.,12.0
1979-07-11 13:31:39.460 ,2,0,9.,12.0,0.,12.0,0.,12.0,0.,12.0
1979-07-11 13:31:51.460 ,2,0,1.,12.0,0.,12.0,0.,12.0,0.,12.0
1979-07-11 13:32:03.460 ,2,0,1.,12.0,0.,12.0,0.,12.0,1.,12.0
1979-07-11 13:32:15.460 ,2,0,5.,12.0,0.,12.0,0.,12.0,0.,12.0
1979-07-11 13:32:27.460 ,2,0,2.,12.0,0.,12.0,0.,12.0,0.,12.0
1979-07-11 13:32:39.460 ,2,0,5.,12.0,0.,12.0,0.,12.0,0.,12.0
1979-07-11 13:32:51.460 ,3,1,6.,12.0,0.,12.0,0.,12.0,1.,12.0
1979-07-11 13:33:03.460 ,3,1,5.,12.0,0.,12.0,0.,12.0,0.,12.0
1979-07-11 13:33:15.460 ,3,0,4.,12.0,0.,12.0,0.,12.0,3.,12.0
1979-07-11 13:33:27.460 ,3,0,8.,12.0,0.,12.0,0.,12.0,0.,12.0
1979-07-11 13:34:27.460 ,3,0,9.,12.0,0.,12.0,0.,12.0,1.,12.0
1979-07-11 13:34:39.460 ,3,0,8.,12.0,0.,12.0,0.,12.0,1.,12.0
1979-07-11 13:34:51.460 ,3,0,16.,12.0,0.,12.0,0.,12.0,0.,12.0
1979-07-11 13:35:03.460 ,3,0,12.,12.0,0.,12.0,0.,12.0,1.,12.0
1979-07-11 13:35:15.460 ,4,1,14.,12.0,0.,12.0,0.,12.0,0.,12.0
1979-07-11 13:35:27.460 ,4,1,20.,12.0,0.,12.0,0.,12.0,0.,12.0
1979-07-11 13:35:39.460 ,4,0,10.,12.0,0.,12.0,0.,12.0,3.,12.0
1979-07-11 13:35:51.460 ,4,0,10.,12.0,0.,12.0,0.,12.0,2.,12.0
1979-07-11 13:36:03.460 ,4,0,15.,12.0,0.,12.0,0.,12.0,2.,12.0
1979-07-11 13:36:15.460 ,4,0,11.,12.0,0.,12.0,0.,12.0,2.,12.0